Flag for Botswana Weather past 2 weeks in Francistown, Botswana

Now
57 °F

Clear.


Feels Like: 57 °F
Forecast: 40 / 79 °F
Wind: 3 mph from Northwest

Location: Francistown Airport

Current Time: Jul 26, 2014 at 9:59:33 PM

Latest Report: Jul 26, 2014 at 9:00 PM


Visibility: 10 mi

Pressure: 30.15 "Hg

Humidity: 31%

Dew point: 27 °F

Location of FrancistownLocation

Historic Weather in Francistown — Graph

°F

Francistown temperature yesterday

Maximum temperature yesterday: 81 °F (at 2:00 PM)
Minimum temperature yesterday: 34 °F (at 7:00 AM)
Average temperature yesterday: 57 °F

Past Weeks' High & Low Weather Summary

 TemperatureHumidityPressure
High84 °F (Jul 26, 2:00 PM)100% (Jul 21, 4:00 AM)30.45 "Hg (Jul 21, 4:00 AM)
Low30 °F (Jul 12, 5:00 AM)11% (Jul 26, 4:00 PM)30.04 "Hg (Jul 18, 3:00 PM)
Average56 °F48%30.24 "Hg
* Reported Jul 11 9:00 PM — Jul 26 9:00 PM, Francistown, Weather by CustomWeather, © 2014

Note: Actual official high and low records may vary slightly from our data, if they occured in-between our weather recording intervals... More about our weather records

Advertising

Francistown weather history for previous 24 hours

 ConditionsComfort  
Time TempWeatherWind HumidityBarometerVisibility
9:00 PM
Jul 26
57 °FClear.3 mph31%30.15 "Hg10 mi
8:00 PM54 °FClear.2 mph33%30.12 "Hg10 mi
7:00 PM63 °FClear.3 mph39%30.12 "Hg10 mi
6:00 PM73 °FClear.6 mph16%30.09 "Hg10 mi
5:00 PM81 °FClear.9 mph13%30.07 "Hg10 mi
4:00 PM84 °FSunny.13 mph11%30.07 "Hg10 mi
3:00 PM84 °FSunny.9 mph12%30.07 "Hg10 mi
2:00 PM84 °FSunny.15 mph14%30.07 "Hg10 mi
1:00 PM82 °FSunny.8 mph16%30.09 "Hg10 mi
12:00 PM81 °FPassing clouds.9 mph20%30.12 "HgN/A
11:00 AM79 °FSunny.10 mph23%30.12 "Hg10 mi
10:00 AM75 °FPassing clouds.10 mph25%30.15 "HgN/A
9:00 AM68 °FSunny.8 mph28%30.15 "Hg10 mi
8:00 AM50 °FSunny.2 mph40%30.12 "Hg10 mi
7:00 AM36 °FSunny.6 mph100%30.09 "Hg10 mi
6:00 AM37 °FSunny.2 mph56%30.09 "Hg10 mi
5:00 AM37 °FClear.1 mph56%30.04 "Hg10 mi
4:00 AM37 °FClear.2 mph56%30.04 "Hg10 mi
3:00 AM41 °FClear.1 mph49%30.04 "Hg10 mi
1:00 AM39 °FClear.5 mph56%30.07 "Hg10 mi
12:00 AM41 °FClear.1 mph49%30.07 "Hg10 mi
11:00 PM
Jul 25
46 °FClear.6 mph46%30.09 "Hg10 mi
10:00 PM50 °FClear.3 mph35%30.09 "Hg10 mi
9:00 PM55 °FClear.No wind31%30.09 "Hg10 mi
Weather by CustomWeather, © 2014

See weather overviewHow to use our weather pages